Weather History for KBGR - February, 2013

Change the Weather History Date:

Sunday, February 3, 2013

  Actual Average Record
Temperature  
Mean Temperature 23 °F 18 °F  
Max Temperature 28 °F 29 °F 79 °F (1947)
Min Temperature 17 °F 7 °F -20 °F (1948)
Degree Days  
Heating Degree Days 42 47  
Month to date heating degree days 138 141  
Since 1 July heating degree days 4354 4548  
Cooling Degree Days 0 0  
Month to date cooling degree days 0 0  
Year to date cooling degree days 0 0  
Moisture  
Dew Point 14 °F    
Average Humidity 72    
Maximum Humidity 91    
Minimum Humidity 53    
Precipitation  
Precipitation T in 0.09 in 1.61 in (1968)
Month to date precipitation T 0.27  
Year to date precipitation 0.87 3.16  
Snow  
Snow T in 0.50 in 9.00 in (1969)
Month to date snowfall T 1.7  
Since 1 July snowfall 25.6 37.7  
Snow Depth T in    
Sea Level Pressure  
Sea Level Pressure 29.91 in    
Wind  
Wind Speed 8 mph (NNE)    
Max Wind Speed 18 mph    
Max Gust Speed 21 mph    
Visibility 9 miles    
Events Snow    
T = Trace of Precipitation, MM = Missing Value Source: NWS Daily Summary

Daily Weather History Graph

Daily Weather History Graph

Search for Another Location

Airport or City:

Trip Planner

Search our weather history database for the weather conditions in past years. The results will help you decide how hot, cold, wet, or windy it might be!

Date:

Astronomy

Feb. 03, 2013 Rise Set
Actual Time 6:51 AM EST 4:46 PM EST
Civil Twilight 6:20 AM EST 5:17 PM EST
Nautical Twilight 5:46 AM EST 5:52 PM EST
Astronomical Twilight 5:11 AM EST 6:27 PM EST
Moon 12:16 AM EST (2/3) 10:20 AM EST (2/3)
Length of Visible Light 10h 56m
Length of Day
9h 54m
Waning Gibbous, 49% of the Moon is Illuminated
Feb 3
Waning Gibbous
Feb 10
New
Feb 17
First Quarter
Feb 25
Full
Mar 4
Last Quarter

Hourly Weather History & Observations

Time (EST) Temp. Windchill Dew Point Humidity Pressure Visibility Wind Dir Wind Speed Gust Speed Precip Events Conditions
12:53 AM 19.9 °F 12.1 °F 14.0 °F 78% 30.06 in 8.0 mi SSE 5.8 mph - N/A   Overcast
1:53 AM 19.9 °F 13.4 °F 17.1 °F 89% 30.06 in 7.0 mi SSE 4.6 mph - 0.00 in   Overcast
2:53 AM 19.9 °F 13.4 °F 17.1 °F 89% 30.06 in 3.0 mi SE 4.6 mph - 0.00 in Snow Light Snow
3:53 AM 19.9 °F 13.4 °F 16.0 °F 85% 30.05 in 9.0 mi ESE 4.6 mph - 0.00 in Snow Light Snow
4:53 AM 19.9 °F 13.4 °F 16.0 °F 85% 30.04 in 9.0 mi ENE 4.6 mph - 0.00 in Snow Light Snow
5:53 AM 19.9 °F 13.4 °F 16.0 °F 85% 30.04 in 4.0 mi NE 4.6 mph - 0.00 in Snow Light Snow
6:53 AM 19.0 °F 11.1 °F 16.0 °F 88% 30.04 in 5.0 mi NNE 5.8 mph - 0.00 in Snow Light Snow
7:53 AM 17.1 °F 5.8 °F 14.0 °F 88% 30.03 in 10.0 mi North 9.2 mph - 0.00 in   Scattered Clouds
8:53 AM 18.0 °F 6.9 °F 12.9 °F 81% 30.02 in 10.0 mi North 9.2 mph - N/A   Overcast
9:53 AM 19.9 °F 10.1 °F 14.0 °F 78% 30.01 in 10.0 mi North 8.1 mph - N/A   Mostly Cloudy
10:53 AM 23.0 °F 14.7 °F 15.1 °F 72% 30.00 in 10.0 mi North 6.9 mph - N/A   Mostly Cloudy
11:53 AM 24.1 °F 15.2 °F 14.0 °F 65% 29.95 in 10.0 mi North 8.1 mph - N/A   Overcast
12:53 PM 26.1 °F 15.6 °F 14.0 °F 60% 29.90 in 10.0 mi North 11.5 mph - N/A   Scattered Clouds
1:53 PM 28.0 °F 17.5 °F 14.0 °F 56% 29.85 in 10.0 mi North 12.7 mph - N/A   Mostly Cloudy
2:53 PM 28.0 °F 17.5 °F 14.0 °F 56% 29.85 in 10.0 mi North 12.7 mph - N/A   Mostly Cloudy
3:53 PM 27.0 °F 16.1 °F 12.9 °F 56% 29.83 in 10.0 mi North 12.7 mph - N/A   Overcast
4:53 PM 26.1 °F 16.2 °F 12.9 °F 58% 29.82 in 10.0 mi NNE 10.4 mph - N/A   Overcast
5:53 PM 25.0 °F 12.6 °F 12.9 °F 60% 29.80 in 10.0 mi NNE 15.0 mph - N/A   Overcast
6:53 PM 24.1 °F 12.5 °F 12.0 °F 60% 29.78 in 10.0 mi NNE 12.7 mph - N/A   Overcast
7:53 PM 21.9 °F 9.8 °F 12.0 °F 66% 29.77 in 10.0 mi NNE 12.7 mph - N/A   Overcast
8:53 PM 21.0 °F 10.6 °F 12.0 °F 68% 29.78 in 10.0 mi NNE 9.2 mph - N/A   Overcast
9:53 PM 19.9 °F 8.6 °F 12.0 °F 71% 29.74 in 10.0 mi North 10.4 mph - N/A   Overcast
10:53 PM 19.0 °F 5.6 °F 12.0 °F 74% 29.70 in 10.0 mi North 13.8 mph - N/A   Overcast
11:53 PM 19.0 °F 7.5 °F 10.9 °F 71% 29.68 in 10.0 mi North 10.4 mph - N/A   Overcast